Messwerte Mecheria

Temperatur

Temperatur
°C
1624183200 11.00 11.00 22
1624186800 12.00 12.00 23
1624190400 13.00 13.00 26
1624194000 14.00 14.00 29
1624197600 15.00 15.00 31
1624201200 16.00 16.00 32
1624204800 17.00 17.00 33
1624208400 18.00 18.00 31
1624212000 19.00 19.00 31
1624215600 20.00 20.00 30
1624219200 21.00 21.00 29
1624222800 22.00 22.00 25
1624226400 23.00 23.00 22
1624230000 0.00 0.00
1624233600 1.00 1.00 20
1624237200 2.00 2.00
1624240800 3.00 3.00 19
1624244400 4.00 4.00 18
1624248000 5.00 5.00 18
1624251600 6.00 6.00
1624255200 7.00 7.00 18
1624258800 8.00 8.00 20
1624262400 9.00 9.00 21
1624266000 10.00 10.00 22

Aktuellste Messwerte

Wettercharakter
Wetter: recht sonnig
Temperatur
22 °C
Feuchtigkeit
40 %
Wind
20 km/hWindrichtung: Nord
Luftdruck
1020 hPa
Messzeit: 21. Juni 2021, 10.00Datenquelle: METAR

Weitere Messstationen in der Nähe

Messstation Temperatur Entfernung
El-Bayadh 26 °C 119 km
Mascara Griss 24 °C 186 km
Tlemcen 24 °C 194 km
Oujda 26 °C 202 km
Oran/Tafaraoui 25 °C 219 km
Oran 26 °C 230 km
Tiaret 23 °C 254 km

Wind

Windrichtung Böen Mittelwind
° km/h km/h
1624183200 11.00 10.00 - 11.00 150° 5
1624186800 12.00 11.00 - 12.00 5
1624190400 13.00 12.00 - 13.00 5
1624194000 14.00 13.00 - 14.00 5
1624197600 15.00 14.00 - 15.00 5
1624201200 16.00 15.00 - 16.00 250° 20
1624204800 17.00 16.00 - 17.00 250° 30
1624208400 18.00 17.00 - 18.00 280° 30
1624212000 19.00 18.00 - 19.00 220° 20
1624215600 20.00 19.00 - 20.00 240° 30
1624219200 21.00 20.00 - 21.00 240° 20
1624222800 22.00 21.00 - 22.00 360° 30
1624226400 23.00 22.00 - 23.00 360° 30
1624230000 0.00 23.00 - 0.00
1624233600 1.00 0.00 - 1.00 360° 30
1624237200 2.00 1.00 - 2.00
1624240800 3.00 2.00 - 3.00 360° 25
1624244400 4.00 3.00 - 4.00 10° 20
1624248000 5.00 4.00 - 5.00 10° 20
1624251600 6.00 5.00 - 6.00
1624255200 7.00 6.00 - 7.00 360° 20
1624258800 8.00 7.00 - 8.00 10° 20
1624262400 9.00 8.00 - 9.00 10° 20
1624266000 10.00 9.00 - 10.00 10° 20

Ihre Wetterstation

Fehlt Ihre Wetterstation auf unserem Portal?

Schreiben Sie an network@meteonews.ch

Klima

Wann ist es am wärmsten? Wann regnet es am wenigsten? Unsere Klimadaten geben Auskunft.